Home   Weather   Saint Helier   Past weeks

Flag for Jersey Past Weather in Saint Helier, Jersey — Yesterday and Last 2 Weeks

Now
50 °F

Clear.


Feels Like: 45 °F
Forecast: 52 / 55 °F
Wind: 15 mph from Southeast

Location: Jersey Airport

Current Time: Dec 8, 2016 at 6:00:06 am

Latest Report: Dec 8, 2016 at 5:20 am


Visibility: 10 mi

Pressure: 30.33 "Hg

Humidity: 88%

Dew Point: 46 °F

Location of Saint HelierLocation

Past Weather in Saint Helier — Graph

°F

Saint Helier Temperature Yesterday

Maximum temperature yesterday: 52 °F (at 11:50 am)
Minimum temperature yesterday: 48 °F (at 4:20 am)
Average temperature yesterday: 50 °F

High & Low Weather Summary for the Past Weeks

 TemperatureHumidityPressure
High55 °F (Nov 24, 10:20 am)100% (Nov 23, 7:20 am)30.57 "Hg (Nov 23, 7:20 am)
Low30 °F (Nov 30, 3:50 am)50% (Nov 28, 12:50 pm)29.89 "Hg (Nov 23, 4:20 am)
Average46 °F85%30.19 "Hg
* Reported Nov 23 4:20 am — Dec 8 4:20 am, Saint Helier, Weather by CustomWeather, © 2016

Note: Actual official high and low records may vary slightly from our data, if they occured in-between our weather recording intervals... More about our weather records

Advertising

Saint Helier Weather History for the Previous 24 Hours

Scroll right to see more
 ConditionsComfort  
Time TempWeatherWind HumidityBarometerVisibility
4:20 am
Thu, Dec 8
48 °FClear.14 mph94%30.36 "Hg10 mi
3:50 am48 °FClear.10 mph94%30.36 "Hg10 mi
8:50 pm
Wed, Dec 7
50 °FClear.18 mph88%30.36 "Hg10 mi
8:20 pm50 °FClear.15 mph88%30.36 "Hg10 mi
7:50 pm50 °FClear.14 mph94%30.36 "Hg10 mi
7:20 pm50 °FClear.14 mph88%30.36 "Hg10 mi
6:50 pm52 °FClear.16 mph88%30.36 "Hg10 mi
6:20 pm52 °FClear.16 mph88%30.36 "Hg10 mi
5:50 pm52 °FClear.14 mph88%30.36 "Hg10 mi
5:20 pm52 °FClear.17 mph82%30.36 "Hg10 mi
4:50 pm52 °FClear.13 mph82%30.36 "Hg10 mi
4:20 pm52 °FClear.15 mph82%30.36 "Hg10 mi
3:50 pm52 °FSunny.13 mph88%30.36 "Hg10 mi
3:20 pm52 °FSunny.16 mph88%30.33 "Hg10 mi
1:50 pm52 °FClear.20 mph88%30.33 "Hg6 mi
1:20 pm52 °FClear.16 mph88%30.33 "Hg6 mi
12:50 pm52 °FClear.18 mph88%30.33 "Hg6 mi
12:20 pm52 °FClear.16 mph94%30.33 "Hg6 mi
11:50 am52 °FClear.15 mph94%30.36 "Hg6 mi
11:20 am50 °FClear.20 mph94%30.36 "Hg6 mi
10:50 am50 °FClear.16 mph88%30.36 "Hg6 mi
10:20 am50 °FClear.15 mph94%30.36 "Hg5 mi
9:50 am50 °FClear.14 mph94%30.36 "Hg5 mi
9:20 am50 °FClear.15 mph100%30.36 "Hg4 mi
8:50 am50 °FClear.13 mph94%30.36 "Hg4 mi
8:20 am50 °FPassing clouds.13 mph94%30.36 "Hg4 mi
7:50 am48 °FPassing clouds.10 mph100%30.36 "Hg4 mi
7:20 am48 °FPassing clouds.16 mph94%30.33 "Hg4 mi
6:50 am48 °FClear.16 mph100%30.33 "Hg4 mi
6:20 am50 °FClear.13 mph94%30.33 "Hg4 mi
Weather by CustomWeather, © 2016

See weather overviewHow to use our weather pages